Location: Brachbach
(49.1847°N, 9.7240°E)
Time: 18:36:45
(UTC+00:00)

NOAA 19 - Visible Passes

Search period start: 07 March 2026 00:00
Search period end: 17 March 2026 00:00
Orbit: 838 x 857 km, 99.0° (Epoch: 7 March)

Date Brightness Start Highest point End Pass type
(mag) Time Alt. Az. Time Alt. Az. Time Alt. Az.
7 Mar 6.1 20:02:50 35° NNE 20:02:50 35° NNE 20:06:38 10° N visible
7 Mar 7.3 21:44:46 23° NW 21:44:46 23° NW 21:47:11 10° NNW visible
8 Mar 6.2 19:49:48 32° NE 19:49:48 32° NE 19:53:44 10° N visible
8 Mar 7.0 21:31:44 28° NW 21:31:44 28° NW 21:34:36 10° NNW visible
9 Mar 6.3 19:36:47 27° NE 19:36:47 27° NE 19:40:49 10° N visible
9 Mar 6.7 21:18:43 34° NW 21:18:43 34° NW 21:21:56 10° NNW visible
10 Mar 6.5 19:23:45 23° NE 19:23:45 23° NE 19:27:50 10° N visible
10 Mar 6.3 21:05:41 40° NNW 21:05:41 40° NNW 21:09:15 10° NNW visible
11 Mar 6.7 19:10:43 19° ENE 19:11:01 19° NE 19:14:47 10° NNE visible
11 Mar 6.0 20:52:39 47° NNW 20:52:39 47° NNW 20:56:31 10° NNW visible
11 Mar 7.9 22:34:35 12° WNW 22:34:35 12° WNW 22:35:17 10° NW visible
12 Mar 6.9 18:57:42 15° ENE 18:58:27 16° NE 19:01:39 10° NNE visible
12 Mar 5.8 20:39:38 51° N 20:39:38 51° N 20:43:45 10° NNW visible
12 Mar 7.7 22:21:33 15° WNW 22:21:33 15° WNW 22:23:12 10° NW visible
13 Mar 7.0 18:44:40 12° ENE 18:45:55 13° NE 18:48:20 10° NNE visible
13 Mar 5.7 20:26:36 51° NNE 20:26:36 51° NNE 20:30:57 10° N visible
13 Mar 7.4 22:08:32 19° WNW 22:08:32 19° WNW 22:10:52 10° NW visible
14 Mar 7.2 18:32:17 10° ENE 18:33:25 11° NE 18:34:32 10° NE visible
14 Mar 5.7 20:13:34 46° NE 20:13:34 46° NE 20:18:07 10° N visible
14 Mar 7.2 21:55:30 24° WNW 21:55:30 24° WNW 21:58:24 10° NW visible
15 Mar 5.8 20:00:33 40° NE 20:00:33 40° NE 20:05:16 10° N visible
15 Mar 6.8 21:42:29 29° WNW 21:42:29 29° WNW 21:45:52 10° NNW visible
16 Mar 6.0 19:47:31 33° ENE 19:47:31 33° ENE 19:52:21 10° N visible
16 Mar 6.5 21:29:28 37° WNW 21:29:28 37° WNW 21:33:15 10° NNW visible
